Accueil
METAR-TAF:

METAR-TAF

Aéroports :

Aéroport de Dijon-Bourgogne

Dijon, France

latitude: 47-16N, longitude: 005-05E, altitude: 222 m

Observation

Le bulletin a été fait il y a 28 minutes, à 23:30 UTC
Vent 8 kt de sud
Température 7°C
Humidité 100%
Pression 1013 hPa
Visibilité 10 km ou plus
Ciel couvert à une hauteur de 800 ft

METAR: LFSD 252330Z AUTO 19008KT 9999 OVC008 07/07 Q1013

Heure: 01:58 (23:58 UTC)


TAF: absent

Observations et prévisions météorologiques de plus de 4000 aéroports (messages METAR et TAF).

Les stations disponibles sont représentées par des disques jaunes et rouges sur la carte.

Passer la souris dessus pour voir le nom de la station.

Cliquer dessus pour voir les observations et prévisions météorologiques.

Pour changer de carte: cliquez sur les boutons verts avec une croix noire pour zoomer, sur le bouton vert avec un tiret pour effectuer un zoom arrière, ou sur les flèches vertes pour les cartes adjacentes.


METAR-TAF: